This demonstration page uses our WeatherBlox Daily Observations layout. Learn more.

Left ArrowRight Arrow

Hourly Observations for June 15, 2020

Temp ( °F °C ) Dew Point ( °F °C ) Humidity (%) Winds ( mph kmh ) Pressure ( in mb ) Visibility ( mi km ) Precip ( " mm )
12:53 am 00:53 Clear 74 23.3 41 5 31 31 SE 9 15 29.94 1014 10 16 0.00 0.00
1:53 am 01:53 Clear 72 22.2 40 4.4 31 31 SE 10 17 29.94 1014 10 16 0.00 0.00
2:53 am 02:53 Clear 71 21.7 41 5 34 34 SE 10 17 29.95 1014 10 16 0.00 0.00
3:53 am 03:53 Clear 70 21.1 43 6.1 38 38 SE 9 15 29.95 1014 10 16 0.00 0.00
4:53 am 04:53 Clear 68 20 45 7.2 44 44 SE 8 13 29.96 1014 10 16 0.00 0.00
5:53 am 05:53 Clear 67 19.4 46 7.8 47 47 ESE 7 11 29.96 1015 10 16 0.00 0.00
6:53 am 06:53 Sunny 65 18.3 47 8.3 52 52 SE 7 11 29.99 1016 10 16 0.00 0.00
7:53 am 07:53 Sunny 69 20.6 49 9.4 49 49 SE 12 19 30.01 1016 10 16 0.00 0.00
11:53 am 11:53 Sunny 84 28.9 46 7.8 27 27 SE 20 32 29.95 1014 10 16 0.00 0.00
12:53 pm 12:53 Sunny 87 30.6 47 8.3 25 25 SE 11 18 29.93 1013 10 16 0.00 0.00
1:53 pm 13:53 Sunny 88 31.1 48 8.9 25 25 SE 14 22 29.90 1013 10 16 0.00 0.00
2:53 pm 14:53 Sunny 91 32.8 44 6.7 20 20 SE 15 24 29.87 1011 10 16 0.00 0.00
3:53 pm 15:53 Sunny 92 33.3 39 3.9 16 16 ESE 15 24 29.84 1011 10 16 0.00 0.00
4:53 pm 16:53 Sunny 92 33.3 43 6.1 18 18 ESE 20 32 29.82 1010 10 16 0.00 0.00
5:53 pm 17:53 Sunny 92 33.3 42 5.6 18 18 SE 13 20 29.91 1013 10 16 0.00 0.00
6:53 pm 18:53 Sunny 90 32.2 44 6.7 20 20 ESE 16 26 29.91 1013 10 16 0.00 0.00
7:53 pm 19:53 Sunny 89 31.7 46 7.8 23 23 SSE 16 26 29.91 1013 10 16 0.00 0.00
8:53 pm 20:53 Sunny 86 30 47 8.3 26 26 SE 15 24 29.93 1014 10 16 0.00 0.00
9:53 pm 21:53 Clear 83 28.3 46 7.8 27 27 SE 10 17 29.94 1014 10 16 0.00 0.00
10:53 pm 22:53 Clear 80 26.7 47 8.3 31 31 SSE 9 15 29.96 1015 10 16 0.00 0.00
11:53 pm 23:53 Clear 77 25 46 7.8 33 33 SE 9 15 29.97 1015 10 16 0.00 0.00

Powered by AerisWeather